Вернуться в каталог

STARLINK-36813

АктивенСвязьSSO
NORAD 67892·PAYLOAD·🇺🇸 United States

Запущен Feb 21, 2026 с Vandenberg Space Force Base

Loading…

Ближайшие Пролёты (ближайшие 24 часа)

TLE

СвежийSource: CelesTrak SupGP

Эпоха: Sep 15, 2026, 03:32 UTC

1 67892C 26035P   26258.14770833  .00092332  00000+0  28664-2 0  2588
2 67892  97.2848 190.1432 0001708  99.8737  28.6241 15.33389484    13

Отслеживайте STARLINK-36813 в реальном времени с AllMySat

Download on the App Store